DW5759 Weather Reports


time (UTC)temp
C
wind
direction
speed
KPH
gust
KPH
rain 1hr
cm
rain 24hr
cm
rain mn
cm
humidity
%
barometer
mb
20260504081504 3 15 0.0 1.6 0.00 0.00 0.00 82 1011.1
20260504050022 5 290 0.0 0.0 0.00 0.00 0.00 76 1011.0
20260504044522 5 158 0.0 0.0 0.00 0.00 0.00 75 1011.1
20260504043012 5 158 0.0 0.0 0.00 0.00 0.00 74 1011.1
20260504041513 5 155 0.0 0.0 0.00 0.00 0.00 75 1011.0
20260504040020 5 155 0.0 0.0 0.00 0.00 0.00 74 1011.0
20260504034523 5 155 0.0 0.0 0.00 0.00 0.00 74 1010.9
20260504033026 5 155 0.0 0.0 0.00 0.00 0.00 73 1010.9
20260504031512 6 155 0.0 1.6 0.00 0.00 0.00 72 1010.9
20260504030018 6 289 0.0 0.0 0.00 0.00 0.00 69 1010.8
20260504024518 6 277 0.0 0.0 0.00 0.00 0.00 69 1010.8
20260504023024 7 277 0.0 0.0 0.00 0.00 0.00 67 1010.7
20260504021525 7 271 0.0 0.0 0.00 0.00 0.00 65 1010.6
20260504020010 8 269 0.0 0.0 0.00 0.00 0.00 63 1010.4
20260504014503 8 268 0.0 0.0 0.00 0.00 0.00 61 1010.4
20260504013005 8 266 0.0 0.0 0.00 0.00 0.00 57 1010.5
20260504011505 10 265 0.0 0.0 0.00 0.00 0.00 54 1010.6
20260504010007 11 262 0.0 0.0 0.00 0.00 0.00 50 1010.4
20260504004532 11 262 0.0 12.9 0.00 0.00 0.00 50 1010.3
20260504003003 11 322 1.6 11.3 0.00 0.00 0.00 48 1010.1
20260504001510 11 283 0.0 9.7 0.00 0.00 0.00 48 1009.9
20260504000004 12 253 3.2 9.7 0.00 0.00 0.00 43 1009.4
20260503234513 12 260 1.6 9.7 0.00 0.00 0.00 43 1009.6
20260503233015 13 238 0.0 9.7 0.00 0.00 0.00 40 1009.2
20260503231504 13 293 3.2 11.3 0.00 0.00 0.00 39 1009.2
20260503230004 13 310 1.6 9.7 0.00 0.00 0.00 37 1008.9
20260503224508 13 285 3.2 14.5 0.00 0.00 0.00 37 1008.7
20260503223012 13 281 3.2 11.3 0.00 0.00 0.00 35 1008.7
20260503221517 13 299 0.0 8.0 0.00 0.00 0.00 35 1008.8
20260503220012 14 284 4.8 12.9 0.00 0.00 0.00 31 1008.7
20260503214512 14 265 3.2 19.3 0.00 0.00 0.00 30 1008.6
20260503213016 13 287 6.4 17.7 0.00 0.00 0.00 29 1008.6
20260503211515 13 308 6.4 14.5 0.00 0.00 0.00 30 1008.6
20260503210019 13 282 1.6 11.3 0.00 0.00 0.00 33 1008.6
20260503204502 13 319 1.6 19.3 0.00 0.00 0.00 34 1008.7
20260503203012 13 335 8.0 19.3 0.00 0.00 0.00 31 1008.8
20260503201512 13 333 8.0 20.9 0.00 0.00 0.00 34 1009.0
20260503200016 13 329 8.0 17.7 0.00 0.00 0.00 34 1008.8
20260503194522 13 333 6.4 22.5 0.00 0.00 0.00 33 1009.1
20260503193026 13 276 4.8 20.9 0.00 0.00 0.00 35 1009.2
20260503191508 12 305 6.4 12.9 0.00 0.00 0.00 37 1009.4
20260503190017 12 356 0.0 9.7 0.00 0.00 0.00 40 1009.5
20260503184520 12 31 3.2 12.9 0.00 0.00 0.00 39 1009.7
20260503183021 11 261 4.8 14.5 0.00 0.00 0.00 39 1009.8
20260503181517 11 276 8.0 20.9 0.00 0.00 0.00 42 1010.2
20260503180021 10 278 4.8 22.5 0.00 0.00 0.00 40 1010.0
20260503174516 10 337 3.2 12.9 0.00 0.00 0.00 43 1010.2
20260503173020 10 291 4.8 17.7 0.00 0.00 0.00 42 1010.5
20260503171526 10 247 6.4 22.5 0.00 0.00 0.00 43 1010.5